South Lake Tahoe, CA

11:44 PM PDT on June 24, 2017 (GMT -0700)
Lake Tahoe

Weather History for KTVL - August, 2013

Change the Weather History Date:

Friday, August 16, 2013

  Actual Average Record
Temperature  
Mean Temperature 60 °F 60 °F  
Max Temperature 82 °F 81 °F 90 °F (2008)
Min Temperature 38 °F 40 °F 32 °F (2006)
Degree Days  
Heating Degree Days 5 5  
Month to date heating degree days 86 68  
Since 1 June heating degree days 317 516  
Since 1 July heating degree days 123 206  
Cooling Degree Days 0 0  
Month to date cooling degree days 0 7  
Year to date cooling degree days 89 26  
Since 1 June cooling degree days 89 26  
Growing Degree Days 10 (Base 50)    
Moisture  
Dew Point 25 °F    
Average Humidity 32    
Maximum Humidity 54    
Minimum Humidity 10    
Precipitation  
Precipitation 0.00 in - 0.14 in (1965)
Month to date precipitation T  
Year to date precipitation 5.93  
Sea Level Pressure  
Sea Level Pressure 30.10 in    
Wind  
Wind Speed 3 mph (SSW)    
Max Wind Speed 17 mph    
Max Gust Speed 25 mph    
Visibility 10 miles    
Events      
T = Trace of Precipitation, MM = Missing Value Source: NWS Daily Summary

Daily Weather History Graph

Daily Weather History Graph

Search for Another Location

Airport or City:

Trip Planner

Search our weather history database for the weather conditions in past years. The results will help you decide how hot, cold, wet, or windy it might be!

Date:

Astronomy

Aug. 16, 2013 Rise Set
Actual Time 6:14 AM PDT 7:52 PM PDT
Civil Twilight 5:46 AM PDT 8:21 PM PDT
Nautical Twilight 5:12 AM PDT 8:55 PM PDT
Astronomical Twilight 4:35 AM PDT 9:31 PM PDT
Moon 4:15 PM PDT (8/16) 1:23 AM PDT (8/16)
Length of Visible Light 14h 34m
Length of Day
13h 38m
Waxing Gibbous, 76% of the Moon is Illuminated
Aug 16
Waxing Gibbous
Aug 20
Full
Aug 28
Last Quarter
Sep 5
New
Sep 12
First Quarter

Hourly Weather History & Observations

Time (PDT) Temp. Windchill Dew Point Humidity Pressure Visibility Wind Dir Wind Speed Gust Speed Precip Events Conditions
12:53 AM 48.9 °F - 30.0 °F 48% 30.09 in 10.0 mi Calm Calm - N/A   Clear
1:53 AM 46.9 °F - 26.1 °F 44% 30.08 in 10.0 mi Calm Calm - N/A   Clear
2:53 AM 45.0 °F - 26.1 °F 48% 30.09 in 10.0 mi Calm Calm - N/A   Clear
3:53 AM 46.9 °F - 21.0 °F 36% 30.09 in 10.0 mi Calm Calm - N/A   Clear
4:53 AM 42.1 °F - 25.0 °F 51% 30.10 in 10.0 mi Calm Calm - N/A   Clear
5:53 AM 39.9 °F 37.8 °F 25.0 °F 55% 30.13 in 10.0 mi South 3.5 mph - N/A   Clear
6:53 AM 39.0 °F 36.8 °F 24.1 °F 55% 30.15 in 10.0 mi SSW 3.5 mph - N/A   Clear
7:53 AM 50.0 °F - 27.0 °F 41% 30.13 in 10.0 mi South 3.5 mph - N/A   Clear
8:53 AM 64.9 °F - 28.0 °F 25% 30.11 in 10.0 mi Calm Calm - N/A   Clear
9:53 AM 72.0 °F - 19.9 °F 14% 30.10 in 10.0 mi SW 9.2 mph - N/A   Clear
10:53 AM 75.0 °F - 21.0 °F 13% 30.10 in 10.0 mi Variable 6.9 mph 20.7 mph N/A   Clear
11:53 AM 78.1 °F - 19.9 °F 11% 30.09 in 10.0 mi WSW 8.1 mph 18.4 mph N/A   Clear
12:53 PM 79.0 °F - 19.9 °F 11% 30.09 in 10.0 mi SW 10.4 mph 17.3 mph N/A   Clear
1:53 PM 80.1 °F - 19.9 °F 11% 30.09 in 10.0 mi SSW 10.4 mph 17.3 mph N/A   Clear
2:53 PM 81.0 °F - 21.0 °F 11% 30.10 in 10.0 mi SW 12.7 mph 25.3 mph N/A   Clear
3:53 PM 81.0 °F - 21.9 °F 11% 30.08 in 10.0 mi SSW 9.2 mph 17.3 mph N/A   Clear
4:53 PM 81.0 °F - 23.0 °F 12% 30.09 in 10.0 mi SSW 8.1 mph 16.1 mph N/A   Clear
5:53 PM 78.1 °F - 26.1 °F 15% 30.10 in 10.0 mi SSW 10.4 mph - N/A   Clear
6:53 PM 75.9 °F - 28.0 °F 17% 30.11 in 10.0 mi SSW 4.6 mph - N/A   Clear
7:53 PM 66.9 °F - 30.0 °F 25% 30.12 in 10.0 mi Calm Calm - N/A   Clear
8:53 PM 66.9 °F - 30.9 °F 26% 30.08 in 10.0 mi Calm Calm - N/A   Clear
9:53 PM 59.0 °F - 32.0 °F 36% 30.09 in 10.0 mi Calm Calm - N/A   Clear
10:53 PM 55.0 °F - 30.9 °F 40% 30.10 in 10.0 mi Calm Calm - N/A   Clear
11:53 PM 53.1 °F - 33.1 °F 47% 30.10 in 10.0 mi Calm Calm - N/A   Clear